Regional Weather Roundup
Issued by NWS

Home | Current Version | Previous Version | Text Only | Print | Product List | Glossary On
Versions: 1 2 3 4 5 6 7 8 9 10 11 12 13 14 15 16 17 18 19 20 21 22 23 24 25 26 27 28 29 30 31 32 33 34 35 36 37 38 39 40 41 42 43 44 45 46 47 48 49 50
000
ASUS44 KJAN 242010
RWRMS

MISSISSIPPI HOURLY WEATHER ROUNDUP
NATIONAL WEATHER SERVICE JACKSON MS
200 PM CST TUE JAN 24 2017

NOTE: "FAIR: INDICATES FEW OR NO CLOUDS BELOW 12,000 FEET WITH NO
SIGNIFICANT WEATHER AND/OR OBSTRUCTIONS TO VISIBILITY.

MSZ001>002-007>008-010>013-018>021-025>028-034>036-242100-
NORTHWEST MISSISSIPPI

CITY           SKY/WX    TMP DP  RH WIND       PRES   REMARKS
BATESVILLE     FAIR      62  37  39 SE6       29.85F
CLARKSDALE     SUNNY     61  46  59 SE10      29.84F
CLEVELAND      FAIR      61  46  56 S13       29.83F
GREENWOOD      SUNNY     67  35  30 S6        29.85F
GREENVILLE     SUNNY     62  44  51 S12       29.83F
OLIVE BRANCH   MOSUNNY  N/A N/A N/A S8        29.83F
OXFORD         FAIR      59  37  44 S6        29.87F
TUNICA         CLEAR     59  41  51 S9G17     29.84F
WINONA         HAZE      63  40  41 SW6       29.87S VSB 1/2
$$

MSZ003>006-009-014>017-022>024-029>033-037>039-242100-
NORTHEAST MISSISSIPPI

CITY           SKY/WX    TMP DP  RH WIND       PRES   REMARKS
COLUMBUS AFB   MOSUNNY   63  41  45 NE3       29.90F
CORINTH        FAIR      57  36  44 SE6       29.86F
GOLDN TRIANGLE SUNNY     61  37  41 CALM      29.86F
STARKVILLE     FAIR      61  39  44 S7        29.89F
TUPELO         SUNNY     58  37  45 SE6       29.87F
$$

MSZ040-058-242100-
CENTRAL MISSISSIPPI

CITY           SKY/WX    TMP DP  RH WIND       PRES   REMARKS
JACKSON INTL   SUNNY     68  37  32 SE6       29.86F
JACKSON HAWKNS SUNNY     69  35  28 VRB5      29.86F
MADISON        FAIR     N/A N/A N/A CALM      29.86F
MERIDIAN KEY   SUNNY     65  40  39 S3        29.89F
MERIDIAN NAS   SUNNY     65  37  35 N3        29.89F
RAYMOND        FAIR      72  37  28 S9        29.86F
VICKSBURG VKS  CLEAR     73  36  25 VRB6G14   29.82F
$$

MSZ059>079-242100-
SOUTH MISSISSIPPI

CITY           SKY/WX    TMP DP  RH WIND       PRES   REMARKS
BROOKHAVEN     FAIR      70  39  32 S9        29.89F
HATTIESBURG    SUNNY     67  38  34 CALM      29.90F
LAUREL         FAIR      65  38  37 CALM      29.90F
MCCOMB         SUNNY     69  36  29 SW7       29.88F
NATCHEZ        SUNNY     72  37  28 SW8G16    29.86F
PINE BELT      SUNNY     66  39  37 S6        29.92S
$$

MSZ080>082-242100-
COASTAL MISSISSIPPI

CITY           SKY/WX    TMP DP  RH WIND       PRES   REMARKS
BAY ST LOUIS   SUNNY     64  39  39 S7        29.92F
BILOXI         SUNNY     60  47  60 S7        29.91F
PASCAGOULA     SUNNY     65  44  46 S7        29.91F
GULFPORT       SUNNY     62  46  55 S6        29.91F
$$

LAZ007>009-015>016-023>026-242100-
NORTHEAST LOUISIANA

CITY           SKY/WX    TMP DP  RH WIND       PRES   REMARKS
BASTROP        FAIR      69  41  35 S8G17     29.81F
TALLULAH/VBURG SUNNY     69  40  34 S8        29.85F
VIDALIA        FAIR      69  46  44 S12       29.89F
$$



USA.gov is the U.S. government's official web portal to all federal, state and local government web resources and services.